TimeCST,TemperatureF,Dew PointF,Humidity,Sea Level PressureIn,VisibilityMPH,Wind Direction,Wind SpeedMPH,Gust SpeedMPH,PrecipitationIn,Events,Conditions,WindDirDegrees,DateUTC
12:53 AM,16.0,12.0,84,30.48,10.0,North,5.8,-,N/A,,Clear,350,2012-11-27 06:53:00
1:53 AM,17.1,12.0,81,30.48,10.0,NNW,4.6,-,N/A,,Clear,330,2012-11-27 07:53:00
2:53 AM,14.0,10.0,84,30.48,10.0,NNW,5.8,-,N/A,,Clear,340,2012-11-27 08:53:00
3:53 AM,15.1,10.0,80,30.47,10.0,NNW,4.6,-,N/A,,Clear,330,2012-11-27 09:53:00
4:53 AM,14.0,10.0,84,30.47,10.0,North,5.8,-,N/A,,Clear,350,2012-11-27 10:53:00
5:53 AM,17.1,10.9,77,30.47,10.0,Calm,Calm,-,N/A,,Clear,0,2012-11-27 11:53:00
6:53 AM,16.0,10.9,81,30.48,10.0,Calm,Calm,-,N/A,,Clear,0,2012-11-27 12:53:00
7:53 AM,17.1,10.9,77,30.49,10.0,Calm,Calm,-,N/A,,Clear,0,2012-11-27 13:53:00
8:53 AM,23.0,12.9,65,30.49,10.0,Calm,Calm,-,N/A,,Clear,0,2012-11-27 14:53:00
9:53 AM,26.1,14.0,60,30.48,9.0,South,6.9,-,0.00,,Clear,170,2012-11-27 15:53:00
10:53 AM,30.0,12.9,49,30.47,10.0,South,6.9,-,N/A,,Clear,170,2012-11-27 16:53:00
11:53 AM,33.1,15.1,48,30.44,10.0,South,8.1,-,N/A,,Clear,180,2012-11-27 17:53:00
12:53 PM,35.1,16.0,46,30.40,10.0,SE,9.2,17.3,N/A,,Clear,140,2012-11-27 18:53:00
1:53 PM,37.9,17.1,43,30.36,10.0,South,8.1,-,N/A,,Clear,170,2012-11-27 19:53:00
2:53 PM,39.0,16.0,39,30.33,10.0,South,11.5,-,N/A,,Clear,190,2012-11-27 20:53:00
3:53 PM,39.9,17.1,40,30.32,10.0,South,8.1,-,N/A,,Clear,190,2012-11-27 21:53:00
4:53 PM,35.1,18.0,50,30.32,10.0,South,4.6,-,N/A,,Clear,180,2012-11-27 22:53:00
5:53 PM,28.9,18.0,64,30.32,10.0,South,5.8,-,N/A,,Clear,180,2012-11-27 23:53:00
6:53 PM,30.9,18.0,59,30.32,10.0,SSW,6.9,-,N/A,,Clear,200,2012-11-28 00:53:00
7:53 PM,28.0,18.0,66,30.33,10.0,South,4.6,-,N/A,,Clear,180,2012-11-28 01:53:00
8:53 PM,30.0,18.0,61,30.35,10.0,SSW,4.6,-,N/A,,Clear,210,2012-11-28 02:53:00
9:53 PM,27.0,18.0,69,30.35,10.0,South,3.5,-,N/A,,Clear,190,2012-11-28 03:53:00
10:53 PM,27.0,18.0,69,30.35,10.0,South,3.5,-,N/A,,Clear,190,2012-11-28 04:53:00
11:53 PM,27.0,19.0,72,30.36,10.0,SSW,4.6,-,N/A,,Clear,210,2012-11-28 05:53:00